[[{"header":{"parameterUnit":"m.s-1","parameterCategory":1,"la1":30.2991,"la2":30.254,"lo1":-89.0895,"lo2":-89.0444,"dy":0.0017,"dx":0.0017,"nx":28,"ny":28,"refTime":"2024-08-02T03:00:00:Z","depth":0,"parameterNumber":2,"parameterNumberName":"U-component_of_WINDS"},"data":[0,0,0,0,0,0,0,0,0,0,0,0,0,0,0,0,0,0,0,0,0,0,0,0,0,0,0,0,0,0,0,0,0,0,0,0,0,0,0,0,0,0,0,0,0,0,0,0,0,0,0,0,0,0,0,0,0,0,3.5059,3.506,0,3.5205,3.5206,3.5208,3.5164,3.5161,3.5158,3.5155,3.5308,3.5315,3.5322,0,0,0,0,0,0,0,0,0,0,0,0,0,3.4743,3.4749,3.5059,3.506,3.5062,3.5204,3.5206,3.5208,3.5164,3.516,3.5157,3.5153,3.5306,3.5314,3.5323,0,0,0,0,0,0,0,0,0,0,0,0,0,3.4884,3.4751,3.5058,3.5057,3.5058,3.5204,3.5207,3.5209,3.5165,3.516,3.5156,3.5151,3.5303,3.5313,3.5324,3.548,0,0,3.5356,3.536,0,0,0,0,0,0,0,0,3.4876,3.4895,3.5056,3.5058,3.5059,3.5161,3.5151,3.53,3.5166,3.5125,3.5155,3.5149,3.5263,3.5277,3.5314,3.5488,3.5494,3.5357,3.5363,3.5367,3.537,0,0,0,0,0,0,0,3.4866,3.4889,3.5116,3.5058,3.506,3.505,3.5065,3.5179,3.5218,3.5128,3.5125,3.5143,3.5264,3.5305,3.5318,3.5497,3.5356,3.5366,3.5372,3.5376,3.5803,3.5808,0,0,0,0,0,0,3.4855,3.4881,3.5112,3.5121,3.4954,3.5059,3.5076,3.5133,3.5217,3.5225,3.5147,3.514,3.5289,3.5306,3.5323,3.551,3.5367,3.5377,3.5383,3.5798,3.5804,3.5809,0,0,0,0,0,0,3.4848,3.4876,3.5106,3.5,3.5029,3.507,3.5134,3.5139,3.5179,3.5231,3.5238,3.5181,3.5286,3.5308,3.5441,3.5515,3.5382,3.5391,3.5792,3.58,3.5807,3.5887,0,0,0,0,0,0,3.4839,3.4874,3.4933,3.5002,3.5035,3.5221,3.5139,3.5145,3.5197,3.519,3.5265,3.5273,3.5284,3.5425,3.5451,3.5527,3.5399,3.5785,3.5795,3.5804,3.5878,3.5896,3.5912,0,0,0,0,0,3.4828,3.4952,3.4937,3.4965,3.511,3.5225,3.5244,3.5253,3.5203,3.5264,3.5296,3.5271,3.5503,3.5439,3.5468,3.5548,3.5781,3.5793,3.5804,3.587,3.5893,3.5912,0,0,0,0,0,0,3.4893,3.4961,3.4945,3.5094,3.5154,3.5218,3.5294,3.5277,3.5354,3.5344,3.5353,3.537,3.5505,3.554,3.5468,3.5703,3.5634,3.5652,3.5675,3.5697,3.5714,3.5703,3.5408,0,0,0,0,0,3.4924,3.5012,3.5066,3.5193,3.5223,3.5254,3.5304,3.5306,3.5369,3.5394,3.5437,3.55,3.5586,3.5644,3.5727,3.5882,3.5897,3.5951,3.5968,3.5982,3.5997,3.608,3.6104,3.5847,3.5847,3.5847,0,0,3.4991,3.5039,3.5094,3.5207,3.5254,3.5344,3.5276,3.5375,3.5442,3.541,3.5537,3.557,3.5641,3.5785,3.585,3.5818,3.6071,3.5997,3.6007,3.6015,3.6094,3.6119,3.614,3.5855,3.5853,3.5852,0,0,3.5158,3.5203,3.5312,3.5359,3.543,3.5448,3.5475,3.554,3.5561,3.5687,3.5664,3.5745,3.5895,3.5945,3.5991,3.6173,3.6152,3.62,3.629,3.637,3.6391,3.6409,3.6472,3.6495,3.6215,3.6215,3.6215,0,3.5232,3.5366,3.5371,3.5471,3.5521,3.5494,3.5604,3.565,3.5745,3.578,3.5742,3.5927,3.5973,3.6127,3.6171,3.621,3.6239,3.6192,3.6387,3.6405,3.6422,3.6483,3.6507,3.622,3.622,3.6219,3.6219,0,3.5453,3.5546,3.5626,3.5715,3.5774,3.5879,3.59,3.5959,3.5954,3.5977,3.6106,3.6159,3.6251,3.6288,3.6286,3.6442,3.6419,3.6384,3.6316,3.6452,3.6509,3.6532,3.6228,3.6226,3.6225,3.6223,0,0,3.5667,3.5755,3.5784,3.5823,3.5897,3.597,3.6073,3.6161,3.6211,3.6277,3.6363,3.6488,3.6455,3.6507,3.651,3.658,3.6719,3.6536,3.6538,3.6567,3.6893,3.6918,3.6945,3.6706,3.671,3.6714,3.6886,0,3.5839,3.6018,3.6024,3.6188,3.6274,3.6248,3.6337,3.6393,3.6416,3.6492,3.6519,3.6607,3.6557,3.6588,3.6657,3.6688,3.6785,3.6676,3.6786,3.679,3.6768,3.6975,3.7003,3.7163,3.6909,3.6913,3.6915,0,3.6064,3.6134,3.6306,3.6365,3.6401,3.6482,3.6561,3.6635,3.6696,3.6708,3.6764,3.6756,3.6861,3.6788,3.6932,3.6858,3.6903,3.6925,3.6932,3.6942,3.686,3.699,3.7215,3.7238,3.6951,3.6948,3.6946,0,3.6201,3.6339,3.6458,3.6493,3.6566,3.6622,3.6655,3.6712,3.6764,3.6834,3.6867,3.6949,3.6994,3.7058,3.7072,3.7018,3.7216,3.7145,3.7228,3.7228,3.7271,3.7268,3.7505,3.7302,3.7301,3.7301,3.73,0,3.6393,3.6499,3.652,3.6594,3.6712,3.6717,3.6834,3.6863,3.6913,3.6992,3.6975,3.705,3.7063,3.7141,3.7153,3.7269,3.729,3.7303,3.7304,3.7304,3.7302,3.7334,3.7323,3.7307,3.7306,3.7305,3.7303,0,3.6566,3.6585,3.6714,3.6771,3.6787,3.6871,3.692,3.6991,3.7011,3.7111,3.7135,3.7167,3.7257,3.7277,3.7385,3.7393,3.7531,3.7522,3.7509,3.7508,3.759,3.7581,3.7855,3.789,3.7664,3.7667,3.7668,0,3.6687,3.6767,3.6832,3.6882,3.6917,3.7,3.7051,3.7059,3.7114,3.7188,3.7249,3.7337,3.7408,3.7553,3.7587,3.7668,3.7661,3.7751,3.7673,3.7669,3.7661,3.7655,3.7663,3.7766,3.7768,3.777,3.7772,0,3.6899,3.6903,3.6977,3.7054,3.7116,3.7178,3.7236,3.7279,3.7294,3.7357,3.7447,3.7502,3.761,3.7697,3.7778,3.7812,3.7795,3.7796,3.7819,3.7819,3.7808,3.7814,3.7549,3.779,3.7788,3.7787,3.7786,3.7785,3.7049,3.7118,3.7173,3.7256,3.73,3.7354,3.7422,3.745,3.7525,3.7612,3.7612,3.7711,3.7769,3.7875,3.7914,3.7992,3.7964,3.7998,3.8007,3.8015,3.8021,3.7796,3.8007,3.8006,3.8006,3.8006,3.8005,0,3.7259,3.7292,3.7368,3.7448,3.7513,3.7489,3.7551,3.7607,3.7694,3.7748,3.7817,3.792,3.8003,3.8042,3.8124,3.8179,3.8173,3.82,3.8196,3.8204,3.8043,3.8013,3.8203,3.8203,3.8203,3.8203,3.8203,3.8203,3.7375,3.749,3.7501,3.7637,3.767,3.7765,3.7802,3.7852,3.7895,3.801,3.8078,3.8102,3.815,3.8235,3.831,3.832,3.835,3.8381,3.8387,3.8236,3.8216,3.8196,3.8169,3.8388,3.8389,3.8541,3.8543,3.8544]},{"header":{"parameterUnit":"m.s-1","parameterCategory":1,"la1":30.2991,"la2":30.254,"lo1":-89.0895,"lo2":-89.0444,"dy":0.0017,"dx":0.0017,"nx":28,"ny":28,"refTime":"2024-08-02T03:00:00:Z","depth":0,"parameterNumber":3,"parameterNumberName":"V-component_of_WINDS"},"data":[0,0,0,0,0,0,0,0,0,0,0,0,0,0,0,0,0,0,0,0,0,0,0,0,0,0,0,0,0,0,0,0,0,0,0,0,0,0,0,0,0,0,0,0,0,0,0,0,0,0,0,0,0,0,0,0,0,0,1.1342,1.1343,0,1.1431,1.1432,1.1433,1.1424,1.1423,1.1421,1.142,1.1513,1.1517,1.1521,0,0,0,0,0,0,0,0,0,0,0,0,0,1.1165,1.1169,1.1342,1.1343,1.1344,1.1431,1.1432,1.1433,1.1424,1.1422,1.1421,1.1419,1.1512,1.1516,1.1521,0,0,0,0,0,0,0,0,0,0,0,0,0,1.1247,1.117,1.1342,1.135,1.1352,1.1431,1.1432,1.1434,1.1425,1.1422,1.142,1.1418,1.1511,1.1516,1.1522,1.1599,0,0,1.1539,1.1541,0,0,0,0,0,0,0,0,1.1242,1.1253,1.1348,1.135,1.1351,1.1414,1.1404,1.1489,1.1425,1.1397,1.142,1.1417,1.1482,1.149,1.1511,1.1603,1.1607,1.154,1.1543,1.1545,1.1547,0,0,0,0,0,0,0,1.1237,1.125,1.1377,1.1349,1.1351,1.135,1.1359,1.142,1.145,1.1399,1.1399,1.1409,1.1483,1.1506,1.1514,1.1608,1.1539,1.1544,1.1548,1.155,1.1767,1.1769,0,0,0,0,0,0,1.1229,1.1245,1.1374,1.138,1.1291,1.1354,1.1365,1.1396,1.145,1.1456,1.1411,1.1409,1.1497,1.1507,1.1517,1.161,1.1545,1.1551,1.1554,1.1764,1.1767,1.177,0,0,0,0,0,0,1.1225,1.124,1.1371,1.1312,1.1329,1.136,1.1395,1.1399,1.1422,1.1458,1.1464,1.1429,1.1496,1.1509,1.1578,1.1613,1.1553,1.1558,1.1762,1.1765,1.1768,1.1797,0,0,0,0,0,0,1.122,1.1239,1.1269,1.1313,1.1332,1.143,1.1397,1.1402,1.1432,1.1429,1.1477,1.1483,1.1495,1.157,1.1584,1.162,1.1563,1.1759,1.1763,1.1767,1.1793,1.1801,1.1808,0,0,0,0,0,1.1214,1.1274,1.127,1.1286,1.1369,1.1432,1.1443,1.1456,1.1435,1.1465,1.1488,1.1481,1.1607,1.1577,1.1593,1.1631,1.1756,1.1762,1.1767,1.179,1.18,1.1808,0,0,0,0,0,0,1.1234,1.128,1.1276,1.1353,1.1388,1.1431,1.1469,1.1466,1.1509,1.1506,1.152,1.1531,1.16,1.1622,1.1588,1.1708,1.1679,1.1687,1.1691,1.17,1.1708,1.1701,1.1568,0,0,0,0,0,1.1247,1.1294,1.1332,1.1395,1.1413,1.1438,1.1466,1.1472,1.1511,1.1526,1.1554,1.1592,1.164,1.1671,1.1717,1.1796,1.1806,1.183,1.1837,1.1843,1.1851,1.1893,1.1904,1.1787,1.1787,1.1787,0,0,1.1275,1.1306,1.1335,1.14,1.1429,1.1477,1.1451,1.1504,1.154,1.1534,1.1601,1.1623,1.1666,1.174,1.1774,1.1761,1.1885,1.185,1.1854,1.1859,1.19,1.1911,1.1921,1.1791,1.179,1.1789,0,0,1.1351,1.1379,1.1435,1.1464,1.1507,1.1522,1.1536,1.1578,1.1592,1.1659,1.1656,1.1699,1.1781,1.1812,1.1838,1.1923,1.1919,1.1938,1.1977,1.2018,1.2027,1.2036,1.2066,1.2077,1.1945,1.1945,1.1945,0,1.1381,1.1453,1.1464,1.1517,1.1546,1.1541,1.1598,1.1625,1.1682,1.1702,1.1685,1.1788,1.1816,1.1897,1.1918,1.1939,1.1955,1.1933,1.2025,1.2034,1.2041,1.207,1.2082,1.1947,1.1947,1.1947,1.1947,0,1.1488,1.1538,1.1578,1.1631,1.1664,1.1718,1.1737,1.177,1.1773,1.179,1.1858,1.1892,1.1944,1.1963,1.1968,1.2045,1.2035,1.2022,1.1993,1.2054,1.2082,1.2093,1.195,1.195,1.1949,1.1948,0,0,1.158,1.1637,1.1652,1.1675,1.1722,1.1761,1.1815,1.1865,1.1892,1.1931,1.1976,1.2045,1.2033,1.2063,1.207,1.2106,1.2171,1.2089,1.209,1.2103,1.2257,1.2267,1.228,1.2168,1.217,1.2172,1.2254,0,1.1661,1.1755,1.1766,1.1851,1.1897,1.1893,1.1939,1.1973,1.199,1.2032,1.2051,1.21,1.208,1.2098,1.2133,1.2156,1.2202,1.215,1.2211,1.2213,1.22,1.2294,1.2305,1.238,1.2264,1.2266,1.2268,0,1.1768,1.1808,1.1897,1.1936,1.1955,1.1997,1.2044,1.2084,1.2121,1.2131,1.2164,1.2166,1.2221,1.219,1.2266,1.223,1.2256,1.227,1.2273,1.228,1.2244,1.2303,1.2405,1.2416,1.2285,1.2283,1.2282,0,1.1826,1.1902,1.1965,1.1986,1.2033,1.2062,1.2083,1.2119,1.2148,1.2188,1.2207,1.2254,1.228,1.2316,1.233,1.2306,1.2406,1.2376,1.2416,1.2416,1.2438,1.2436,1.2545,1.2454,1.2454,1.2453,1.2453,0,1.1915,1.1969,1.1992,1.2031,1.2091,1.2103,1.2163,1.2182,1.2214,1.2256,1.2256,1.2296,1.2312,1.2355,1.2367,1.2428,1.244,1.2449,1.2452,1.245,1.2448,1.2467,1.2462,1.2456,1.2456,1.2455,1.2455,0,1.199,1.2008,1.2076,1.2114,1.2125,1.2168,1.2201,1.2238,1.2254,1.2308,1.2321,1.2347,1.2397,1.2415,1.2476,1.2484,1.2555,1.2553,1.2542,1.2542,1.2582,1.2578,1.2706,1.2724,1.2621,1.2622,1.2622,0,1.2046,1.2088,1.213,1.2158,1.218,1.2225,1.2254,1.2267,1.2297,1.2343,1.2375,1.2424,1.2464,1.2544,1.2568,1.2615,1.2614,1.2656,1.2621,1.2617,1.2614,1.2612,1.2616,1.2663,1.2664,1.2664,1.2665,0,1.2143,1.2149,1.2191,1.2236,1.227,1.2306,1.2341,1.2364,1.2382,1.2416,1.2467,1.2498,1.2559,1.2608,1.2655,1.2677,1.2674,1.2676,1.2687,1.2686,1.2677,1.2682,1.256,1.2673,1.2672,1.2672,1.2671,1.2671,1.221,1.2247,1.2282,1.2328,1.2355,1.2388,1.2424,1.2444,1.2486,1.2537,1.2542,1.2596,1.2632,1.2695,1.2719,1.2761,1.275,1.2767,1.2771,1.2775,1.2778,1.267,1.277,1.277,1.277,1.2769,1.2769,0,1.2307,1.2329,1.2371,1.2419,1.2456,1.2449,1.2487,1.2518,1.2565,1.2598,1.2637,1.2695,1.2742,1.2769,1.2816,1.2845,1.2845,1.2857,1.2855,1.286,1.2786,1.2771,1.2857,1.2857,1.2857,1.2857,1.2857,1.2857,1.2361,1.2422,1.2432,1.2507,1.2528,1.2581,1.2603,1.2633,1.2659,1.2723,1.2762,1.2779,1.281,1.2859,1.2902,1.2908,1.2926,1.2939,1.2945,1.2875,1.2866,1.2857,1.2843,1.2943,1.2943,1.3016,1.3017,1.3017]}]]